SCP
0 0 0 0 0 0 0 0 0 0 0 0 0 0 0 0 0 0 0 0 0 0 0 0 0 0 0 0 0 0 0 0 0 0 0 0 0 0 0 0 0 0 0 0 0 0 0 0 0 0 0 0 0 0
0 0 0 0 0 0 0 0 0 0 0 0 0 0 0 0 0 0 0 0 0 0 0 0 0 0 0 0 0 0 0 0 0 0 0 0 0 0 0 0 0 0 0 0 0 0 0 0 0 0 0 0 0 0
0 0 0 0 0 0 0 0 0 0 0 0 0 0 0 0 0 0 0 0 0 0 0 0 0 0 0 0 0 0 0 0 0 0 0 0 0 0 0 0 0 0 0 0 0 0 0 0 0 0 0 0 0 0
0 0 0 0 0 0 0 0 0 0 0 0 0 0 0 0 0 0 0 0 0 0 0 0 0 0 0 0 0 0 0 0 0 0 0 0 0 0 0 0 0 0 0 0 0 0 0 0 0 0 0 0 0 0
0 0 0 0 0 0 0 0 0 0 0 0 0 0 0 0 0 0 0 0 0 0 0 0 0 0 0 0 0 0 0 0 0 0 0 0 0 0 0 0 0 0 0 0 0 0 0 0 0 0 0 0 0 0
0 0 0 0 0 0 0 0 0 0 0 0 0 0 0 0 0 0 0 0 0 0 0 0 0 0 0 0 0 0 0 0 0 0 0 0 0 0 0 0 0 0 0 0 0 0 0 0 0 0 0 0 0 0
0 0 0 0 0 0 0 0 0 0 0 0 0 0 0 0 0 0 0 0 0 0 0 0 0 0 0 0 0 0 0 0 0 0 0 0 0 0 0 0 0 0 0 0 0 0 0 0 0 0 0 0 0 0
0 0 0 0 0 0 0 0 0 0 0 0 0 0 0 0 0 0 0 0 0 0 0 0 0 0 0 0 0 0 0 0 0 0 0 0 0 0 0 0 0 0 0 0 0 0 0 0 0 0 0 0 0 0
0 0 0 0 0 0 0 0 0 0 0 0 0 0 0 0 0 0 0 0 0 0 0 0 0 0 0 0 0 0 0 0 0 0 0 0 0 0 0 0 0 0 0 0 0 0 0 0 0 0 0 0 0 0
0 0 0 0 0 0 0 0 0 0 0 0 0 0 0 0 0 0 0 0 0 0 0 0 0 0 0 0 0 0 0 0 0 0 0 0 0 0 0 0 0 0 0 0 0 0 0 0 0 0 0 0 0 0
0 0 0 0 0 0 0 0 0 0 0 0 0 0 0 0 0 0 0 0 0 0 0 0 0 0 0 0 0 0 0 0 0 0 0 0 0 0 0 0 0 0 0 0 0 0 0 0 0 0 0 0 0 0
0 0 0 0 0 0 0 0 0 0 0 0 0 0 0 0 0 0 0 0 0 0 0 0 0 0 0 0 0 0 0 0 0 0 0 0 0 0 0 0 0 0 0 0 0 0 0 0 0 0 0 0 0 0
0 0 0 0 0 0 0 0 0 0 0 0 0 0 0 0 0 0 0 0 0 0 0 0 0 0 0 0 0 0 0 0 0 0 0 0 0 0 0 0 0 0 0 0 0 0 0 0 0 0 0 0 0 0
0 0 0 0 0 0 0 0 0 0 0 0 0 0 0 0 0 0 0 0 0 0 0 0 0 0 0 0 0 0 0 0 0 0 0 0 0 0 0 0 0 0 0 0 0 0 0 0 0 0 0 0 0 0
0 0 0 0 0 0 0 0 0 0 0 0 0 0 0 0 0 0 0 0 0 0 0 0 0 0 0 0 0 0 0 0 0 0 0 0 0 0 0 0 0 0 0 0 0 0 -0 0 0 0 0 0 0 0
0 0 0 0 0 0 0 0 0 0 0 0 0 0 0 0 0 0 0 0 0 0 0 0 0 0 0 0 0 0 0 0 0 0 0 0 0 0 0 0 0 0 0 0 0 0 -0 0 0 0 0 0 0 0
0 0 0 0 0 0 0 0 0 0 0 0 0 0 0 0 0 0 0 0 0 0 0 0 0 0 0 0 0 0 0 0 0 0 0 0 0 0 0 0 0 0 0 0 0 -0 0 0 0 0 0 0 0 0
0 0 0 0 0 0 0 0 0 0 0 0 0 0 0 0 0 0 0 0 0 0 0 0 0 0 0 0 0 0 0 0 0 0 0 0 0 0 0 0 0 0 0 0 0 -0 0 0 0 0 0 0 0 0
0 0 0 0 0 0 0 0 0 0 0 0 0 0 0 0 0 0 0 0 0 0 0 0 0 0 0 0 0 0 0 0 0 0 0 0 0 0 0 0 0 0 0 0 -0 -0 0 0 0 -0 -0 -0 0 0
0 0 0 0 0 0 0 0 0 0 0 0 0 0 0 0 0 0 0 0 0 0 0 0 0 0 0 0 0 0 0 0 0 0 0 0 0 0 0 0 0 0 0 0 0 -0 0 0 0 0 -0 -0 -0 0
0 0 0 0 0 0 0 0 0 0 0 0 0 0 0 0 0 0 0 0 0 0 0 0 0 0 0 0 0 0 0 0 0 0 0 0 0 0 0 0 0 0 0 0 0 0 0 0 0 0 0 0 -0 0
0 0 0 0 0 0 0 0 0 0 0 0 0 0 0 0 0 0 0 0 0 0 0 0 0 0 0 0 0 0 0 0 0 0 0 0 0 0 0 0 0 0 0 0 0 0 0 0 0 0 0 0 0 0
0 0 0 0 0 0 0 0 0 0 0 0 0 0 0 0 0 0 0 0 0 0 0 0 0 0 0 0 0 0 0 0 0 0 0 0 0 0 0 0 0 0 0 0 0 0 0 -0 -0 -0 0 0 0 0
0 0 0 0 0 0 0 0 0 0 0 0 0 0 0 0 0 0 0 0 0 0 0 0 0 0 0 0 0 0 0 0 0 0 0 0 0 0 0 0 0 0 0 0 0 0 0 0 -0 0 0 0 0 0
0 0 0 0 0 0 0 0 0 0 0 0 0 0 0 0 0 0 0 0 0 0 0 0 0 0 0 0 0 0 0 0 0 0 0 0 0 0 0 0 0 0 0 0 0 0 0 0 0 0 0 -0 -0 -0
0 0 0 0 0 0 0 0 0 0 0 0 0 0 0 0 0 0 0 0 0 0 0 0 0 0 0 0 0 0 0 0 0 0 0 0 0 0 0 -0 0 0 -0 -0 0 0 0 0 0 -0 0 0 0 -0
0 0 0 0 0 0 0 0 0 0 0 0 0 0 0 0 0 0 0 0 0 0 0 0 -0 0 0 0 0 0 0 0 0 0 0 0 0 0 0 0 0 0 -0 -0 -0 -0 -0 0 0 0 -0 0 0 -0
0 0 0 0 0 0 0 0 0 0 0 0 0 0 0 0 0 0 0 0 0 0 0 0 0 0 0 0 0 0 0 0 0 0 0 0 0 0 -0 0 0 0 -0 -0 -0 0 -0 0 0 0 0 0 0 -0
0 0 0 0 0 0 0 0 0 0 0 0 0 0 0 0 0 0 0 0 0 0 0 0 0 0 0 0 0 0 0 0 0 -0 0 0 0 0 -0 -0 0 -0 -0 0 0 -0 0 0 0 0 0 -0 -0 -0
0 0 0 0 0 0 0 0 0 0 0 0 0 0 0 0 0 0 0 0 0 0 0 0 0 0 0 0 0 0 0 0 0 0 -0 0 -0 -0 -0 -0 -0 -0 0 0 0 0 0 0 0 0 0 -0 0 -0
0 0 0 0 0 0 0 0 0 0 0 0 0 0 0 0 0 0 0 0 0 0 0 0 0 0 0 0 0 0 0 0 0 0 -0 -0 -0 -0 -0 -0 -0 0 0 0 0 0 0 0 0 0 0 -0 0 0
0 0 0 0 0 0 0 0 0 0 0 0 0 0 -0 -0 0 0 0 0 0 0 0 0 0 0 0 0 0 0 0 0 0 0 0 -0 -0 0 0 0 0 -0 0 0 0 0 0 0 0 0 0 0 0 0
0 0 0 0 0 0 0 0 0 0 0 0 0 0 0 0 0 0 0 0 0 0 -0 0 0 0 0 0 0 0 0 0 0 0 0 0 0 0 0 0 0 -0 0 0 0 0 0 0 0 0 0 0 0 0
Wind_Speed_500mb
43 39 31 28 27 27 25 20 22 20 18 14 11 13 12 14 14 11 6 13 5 2 6 5 5 3 3 3 8 10 10 10 8 11 8 7 10 7 9 4 4 8 7 10 7 12 24 8 7 13 12 11 16 22
36 32 25 24 25 22 21 20 22 22 18 14 11 10 10 10 13 7 6 13 7 2 3 8 8 9 8 6 1 5 6 4 5 3 5 3 8 7 5 8 6 6 6 9 7 10 5 4 5 7 13 19 26 30
28 23 14 14 16 18 17 20 23 21 17 14 12 9 8 8 10 4 11 6 9 4 10 11 11 9 8 4 2 7 5 5 4 2 1 3 5 6 9 5 2 7 1 8 6 10 7 9 17 20 21 26 32 39
22 14 13 14 23 20 20 21 22 18 16 13 13 10 8 6 5 2 7 10 6 4 6 11 12 7 8 5 1 8 6 8 12 5 4 4 4 4 1 6 10 12 5 3 14 18 15 21 20 24 29 37 46 49
21 18 26 26 28 25 25 27 25 21 17 15 15 13 9 7 4 1 2 7 5 4 6 18 13 6 7 9 11 14 14 12 11 8 7 3 3 6 3 4 10 4 6 9 12 21 17 26 31 37 42 48 49 54
21 22 24 36 36 34 31 32 31 24 22 18 18 16 11 9 5 2 3 3 5 6 3 10 9 13 11 14 15 15 12 9 5 4 7 6 5 8 5 2 8 3 1 6 14 21 28 37 38 37 44 54 58 59
22 21 21 22 35 42 41 36 29 27 25 21 21 18 13 10 8 6 3 7 2 5 3 10 14 13 15 13 10 12 10 8 4 8 3 5 7 7 3 3 10 3 7 10 15 24 34 34 46 49 51 53 57 61
22 21 23 21 20 18 24 28 29 22 21 21 22 19 13 11 8 5 13 7 1 2 3 5 7 17 18 14 12 5 7 7 4 4 7 2 7 5 4 9 2 4 9 14 22 30 37 43 46 50 53 58 61 62
24 21 21 22 18 17 22 27 23 17 17 20 21 14 9 8 5 9 10 6 4 6 5 7 10 9 21 10 7 9 6 5 4 4 5 6 6 7 10 6 1 8 14 25 33 38 37 41 48 51 55 59 58 58
21 18 17 18 16 16 16 17 15 15 21 22 22 7 10 10 11 13 3 3 6 8 8 9 3 8 22 19 9 10 5 2 6 6 5 7 5 11 9 1 7 14 21 28 36 40 44 46 48 50 55 54 60 65
20 18 16 17 14 15 14 15 17 24 26 24 11 7 12 19 10 6 8 10 10 9 14 10 17 14 7 13 11 2 4 4 6 8 6 6 7 16 11 3 7 13 21 27 28 30 35 39 43 49 54 52 59 62
19 17 15 14 12 13 12 19 31 30 24 20 17 18 18 7 8 9 9 7 10 7 14 19 21 13 11 5 6 7 3 6 3 9 6 6 11 12 4 6 13 19 23 23 24 29 32 36 38 40 44 49 54 52
17 17 13 12 11 13 13 31 34 30 24 22 8 11 9 10 5 11 16 9 8 16 19 23 20 15 9 6 7 5 8 4 7 7 5 3 18 5 4 13 17 20 20 21 25 27 33 37 37 37 43 46 48 50
17 15 14 11 11 12 17 36 38 32 12 7 11 5 10 11 10 7 6 7 11 15 31 36 20 9 8 6 5 7 4 8 7 7 7 12 9 1 9 12 16 18 19 21 23 29 32 35 38 41 39 42 46 50
15 13 13 11 10 13 30 36 39 22 8 7 8 8 13 3 5 6 8 11 12 27 39 26 16 10 9 7 5 5 9 7 7 6 7 12 3 7 8 10 12 14 16 17 22 27 31 36 37 38 40 42 43 45
14 12 12 14 14 23 34 35 34 7 5 4 7 6 9 9 11 13 15 14 18 35 32 21 8 8 6 7 10 9 7 7 8 8 10 5 3 5 6 8 9 9 10 14 18 22 27 36 36 39 42 45 47 48
11 10 9 12 28 36 33 28 18 7 5 5 7 11 5 2 1 5 9 14 24 35 16 9 11 6 9 6 8 5 4 9 18 12 5 1 3 3 5 5 5 5 9 12 16 17 19 26 31 40 51 51 49 51
14 12 7 33 43 39 26 10 8 7 8 11 7 9 6 3 2 7 7 14 26 35 23 4 10 10 7 10 8 10 17 19 12 7 3 1 1 1 3 4 8 8 10 11 13 15 20 24 29 30 32 37 43 47
16 14 38 46 39 12 10 9 6 6 7 5 4 2 2 0 2 1 7 20 14 17 14 8 4 7 7 4 11 22 23 18 12 5 3 3 1 6 8 10 10 11 10 13 13 15 17 23 25 26 28 29 35 38
15 34 39 43 27 11 5 6 8 3 4 4 4 5 3 3 3 9 16 15 15 10 7 6 2 7 13 15 16 19 19 17 9 4 9 6 7 9 8 10 11 12 10 11 15 16 17 21 24 26 28 31 35 40
23 34 41 22 3 3 4 7 8 3 2 3 4 4 5 4 7 10 9 6 8 8 6 9 8 15 18 18 15 15 16 15 8 4 4 9 6 8 9 12 13 11 11 12 13 16 20 22 21 23 28 32 30 35
24 21 17 6 3 1 2 2 1 4 4 5 6 6 8 8 5 5 6 4 13 20 7 6 9 15 11 12 11 12 15 19 10 7 8 8 10 10 12 15 14 16 18 18 18 19 19 19 22 22 22 24 31 36
25 19 7 3 4 4 4 7 4 6 5 8 7 5 7 12 17 20 8 12 23 21 20 19 18 18 16 12 12 16 17 11 11 12 10 12 11 14 17 19 19 22 23 21 21 22 22 23 23 22 23 24 25 28
19 6 3 4 1 2 5 7 4 3 5 7 7 5 5 8 13 13 12 20 21 18 21 23 24 21 20 20 19 19 15 15 16 14 16 16 16 17 20 20 22 24 25 23 20 19 19 19 20 20 19 21 22 25
4 3 2 4 4 3 4 8 6 5 3 5 4 4 5 9 8 10 13 26 27 29 25 21 21 21 22 24 23 19 20 16 15 16 18 16 18 20 22 23 24 24 20 16 13 11 10 11 13 15 18 21 20 21
2 6 8 8 7 3 5 4 8 7 2 3 6 2 4 7 8 9 12 29 31 30 32 28 29 27 23 25 25 21 20 21 16 16 20 19 21 22 29 30 25 19 15 11 7 4 4 5 8 11 15 16 20 23
3 5 7 5 3 5 6 4 1 5 4 3 3 3 3 6 9 5 7 8 14 21 26 26 30 26 25 25 21 23 24 21 16 11 19 23 21 28 28 27 22 18 13 7 2 6 10 7 6 8 10 11 17 20
0 5 4 15 8 5 5 6 6 5 2 5 5 7 8 6 4 5 3 1 10 15 19 23 24 24 21 19 21 26 27 20 16 20 25 24 26 28 23 20 14 9 7 4 2 3 7 8 5 6 7 9 12 17
3 3 7 11 10 5 5 4 5 9 15 12 7 1 5 6 5 3 1 6 13 21 29 33 31 26 26 25 23 18 19 17 25 31 31 33 31 28 24 19 11 6 9 8 8 9 6 7 5 6 8 10 10 13
6 14 10 13 8 3 7 8 10 12 14 16 11 3 11 11 13 21 16 13 16 21 26 30 29 25 27 25 20 18 18 18 20 20 32 32 29 26 25 22 15 11 10 15 12 12 9 4 7 5 3 3 6 10
7 18 8 12 8 17 11 11 12 13 8 4 1 11 14 10 13 13 15 23 20 29 30 29 29 23 26 24 20 20 21 22 23 23 26 27 28 25 22 19 15 16 10 9 11 12 9 6 1 2 5 4 7 12
14 10 6 7 7 7 4 3 1 3 6 7 5 6 10 10 8 1 10 9 13 25 26 24 22 21 20 18 13 16 20 23 30 29 28 27 25 19 17 16 2 13 14 10 11 10 12 11 9 8 5 7 11 15
7 7 7 6 9 7 9 5 5 6 5 5 4 2 2 5 9 7 25 15 14 28 32 22 22 25 20 15 13 14 21 31 36 35 33 28 21 20 16 18 17 16 19 12 10 7 8 8 11 14 13 12 15 16
Wind_Direction_500mb
286 285 282 272 265 266 270 270 272 279 298 293 303 326 346 359 358 5 315 353 159 283 106 87 66 89 139 242 228 120 181 200 211 239 265 186 258 165 240 35 244 240 251 220 256 275 257 61 182 289 7 321 321 310
283 280 273 263 255 262 260 262 265 269 283 285 272 304 325 353 2 5 2 347 171 127 100 130 105 100 87 73 59 165 25 82 32 250 221 180 197 188 299 214 175 235 333 342 311 26 56 356 357 326 318 310 309 305
286 282 258 258 253 251 253 259 265 267 269 281 249 276 302 331 3 42 19 29 140 153 138 153 130 96 77 69 111 255 191 152 146 135 92 50 239 298 228 228 228 154 6 265 313 107 340 319 297 295 288 297 302 300
285 262 211 214 241 255 256 262 267 261 257 270 235 251 273 293 347 135 50 40 131 247 234 134 129 103 86 37 66 207 187 154 140 147 219 234 238 248 76 27 273 38 176 306 271 267 307 294 309 300 288 295 300 300
274 256 220 228 241 254 255 262 263 254 250 257 231 235 248 254 283 233 165 45 74 143 345 140 145 109 88 86 94 111 138 150 171 181 207 137 107 215 148 270 245 168 25 288 329 344 315 300 309 307 302 299 300 301
268 269 249 232 238 247 255 260 262 253 243 245 226 225 233 231 237 160 216 251 43 150 213 179 121 143 127 113 102 103 116 121 141 177 109 117 101 279 249 260 93 151 138 331 309 311 310 304 302 306 306 306 303 300
261 264 273 267 243 241 247 255 258 246 244 237 219 214 224 220 212 204 271 196 159 130 241 155 153 165 154 147 124 115 93 98 83 128 120 121 146 275 271 257 119 164 313 315 306 311 311 314 311 312 309 308 306 304
253 258 268 276 274 257 250 242 249 244 242 228 206 204 215 218 214 243 233 214 171 129 218 228 113 163 176 178 151 160 162 167 60 96 168 202 165 236 242 122 157 309 310 308 322 318 311 312 313 316 315 315 313 311
252 251 261 272 271 264 244 243 245 236 222 202 185 185 186 187 187 216 194 207 228 169 261 234 182 159 175 158 136 154 205 193 132 200 127 241 138 217 121 124 48 331 318 317 318 319 319 319 317 320 321 318 314 310
246 246 260 267 263 266 256 233 216 202 176 167 159 154 182 189 179 160 204 175 194 211 224 246 137 143 187 176 149 157 202 146 210 86 166 234 197 118 154 110 325 321 322 321 322 324 324 323 324 323 323 319 319 320
241 244 262 265 258 258 249 208 178 160 158 156 160 173 189 153 145 186 202 214 172 212 197 197 199 150 160 201 135 304 134 157 225 117 259 171 189 149 148 69 348 336 327 322 320 316 322 324 326 324 327 330 335 335
235 240 255 256 251 250 233 180 164 161 165 165 148 131 140 176 189 209 197 174 220 202 168 179 160 144 129 123 144 163 180 199 188 141 234 214 101 148 209 337 343 336 331 333 334 332 333 332 328 326 331 336 340 342
224 237 241 248 242 238 208 173 163 159 153 143 146 169 183 162 183 211 184 191 192 173 167 163 146 140 129 137 105 176 188 158 136 213 219 115 113 137 11 333 328 334 334 341 340 344 341 336 339 340 342 345 347 353
213 231 239 249 231 216 185 170 161 161 161 182 170 159 216 178 226 194 213 133 116 151 158 163 139 137 122 142 143 174 84 196 209 219 191 132 133 45 335 325 327 333 345 345 350 350 344 345 345 349 351 352 1 1
208 223 231 234 208 195 171 164 164 167 166 204 191 209 202 221 202 173 169 158 143 152 153 150 134 137 123 134 178 131 182 214 222 183 115 116 106 337 340 333 336 339 349 353 358 356 353 355 358 7 16 13 7 10
208 227 237 211 188 165 156 162 168 152 167 214 221 240 192 219 164 176 179 173 153 161 165 166 147 164 145 149 183 190 191 211 143 135 122 115 357 347 346 349 343 354 2 5 7 3 13 15 17 26 32 31 37 37
190 185 185 179 155 145 151 156 174 196 214 216 229 214 251 310 109 144 173 164 165 170 177 155 170 137 127 191 173 188 206 115 132 140 132 15 353 360 7 359 14 50 34 19 12 15 20 26 35 35 42 44 46 48
169 166 171 156 146 145 153 154 189 200 221 218 227 138 182 230 252 148 160 170 168 188 177 158 123 189 172 176 161 146 148 135 136 133 163 308 270 297 68 59 97 78 55 34 26 23 23 28 24 26 26 28 32 43
165 154 149 149 146 143 156 192 195 219 201 163 199 194 171 137 108 120 161 168 166 163 166 167 194 188 161 147 126 155 158 160 159 163 183 161 30 95 108 125 115 89 71 53 39 34 31 29 32 29 30 34 37 34
162 163 156 151 146 166 166 172 172 236 183 122 161 137 108 106 89 111 116 127 141 145 172 162 185 125 128 134 143 158 164 162 170 206 165 164 123 122 131 146 125 104 74 64 43 59 47 46 42 44 49 47 46 38
160 167 169 165 66 99 113 152 183 198 131 151 145 144 124 123 107 122 88 120 108 34 151 185 164 130 125 142 152 163 177 177 201 281 189 168 121 121 125 130 106 100 89 80 73 57 61 54 48 49 53 52 54 50
154 157 147 136 133 240 183 142 123 168 177 141 154 176 153 150 170 120 55 111 166 214 217 136 165 162 180 193 210 219 204 192 205 209 204 190 151 139 135 119 117 108 102 94 87 81 73 72 64 63 61 56 49 49
137 135 124 26 7 33 103 155 196 169 178 149 160 169 191 179 178 160 160 224 233 206 198 203 232 227 197 204 206 186 179 194 189 189 170 149 140 139 128 126 123 122 113 104 101 93 83 74 71 69 60 53 48 45
84 103 147 145 176 211 182 186 165 133 141 161 165 180 202 196 171 217 228 204 208 187 197 218 221 214 218 212 197 191 190 178 182 167 168 149 144 134 134 135 132 128 120 111 105 97 86 78 66 56 48 42 38 34
73 66 87 296 191 206 221 156 146 180 166 136 149 220 213 185 215 229 228 215 209 210 215 231 227 203 202 196 190 188 195 187 194 184 165 149 149 138 144 142 140 140 131 119 115 100 86 70 55 45 36 28 17 13
150 185 193 199 137 213 138 151 188 134 195 194 244 281 253 220 223 226 215 219 211 213 214 210 197 191 192 191 187 187 189 176 175 184 171 161 156 155 151 149 150 154 154 138 114 78 27 359 9 3 8 6 12 8
171 162 174 194 136 152 198 236 225 147 160 205 277 273 238 243 216 200 151 162 179 191 193 195 188 186 182 175 182 196 183 181 176 174 185 157 157 156 153 150 146 141 151 147 82 3 353 340 327 345 3 31 21 27
319 176 201 166 187 223 292 222 192 117 148 216 249 219 216 242 68 77 129 140 163 155 162 163 162 163 165 170 176 176 165 170 185 162 158 161 163 165 163 161 165 181 185 215 262 348 23 30 52 61 51 42 57 43
187 203 186 174 178 230 256 286 73 177 209 211 252 120 56 58 4 49 297 177 171 168 163 160 159 163 173 171 161 161 170 169 172 168 164 163 164 173 176 176 178 168 156 126 145 137 110 59 86 91 82 85 62 35
223 192 204 178 189 206 256 190 199 265 277 263 287 209 97 79 82 76 71 114 149 152 162 172 175 175 168 166 169 171 173 177 174 173 172 173 174 169 171 174 180 177 188 192 173 164 168 116 93 130 109 49 14 6
209 186 201 186 165 208 194 202 248 263 258 222 49 54 112 113 74 67 86 74 139 146 148 153 148 154 154 155 165 182 191 194 186 174 170 166 166 168 174 179 188 202 199 199 201 199 201 192 234 322 237 293 335 351
183 198 188 171 198 180 222 230 181 177 133 160 119 112 140 144 101 257 190 148 134 139 171 151 146 147 152 159 165 186 182 183 174 170 168 168 175 175 180 177 222 247 240 227 207 210 215 230 238 265 301 270 314 323
179 208 228 215 188 198 189 212 197 168 165 121 128 103 30 68 114 180 176 179 130 158 174 197 183 160 152 141 138 139 148 160 166 166 167 169 188 220 247 279 291 262 219 206 203 219 235 253 272 264 268 294 301 317
Wind_Speed_850mb
43 39 31 28 27 27 25 20 22 20 18 14 11 13 12 14 14 11 6 13 5 2 6 5 5 3 3 3 8 10 10 10 8 11 8 7 10 7 9 4 4 8 7 10 7 12 24 8 7 13 12 11 16 22
36 32 25 24 25 22 21 20 22 22 18 14 11 10 10 10 13 7 6 13 7 2 3 8 8 9 8 6 1 5 6 4 5 3 5 3 8 7 5 8 6 6 6 9 7 10 5 4 5 7 13 19 26 30
28 23 14 14 16 18 17 20 23 21 17 14 12 9 8 8 10 4 11 6 9 4 10 11 11 9 8 4 2 7 5 5 4 2 1 3 5 6 9 5 2 7 1 8 6 10 7 9 17 20 21 26 32 39
22 14 13 14 23 20 20 21 22 18 16 13 13 10 8 6 5 2 7 10 6 4 6 11 12 7 8 5 1 8 6 8 12 5 4 4 4 4 1 6 10 12 5 3 14 18 15 21 20 24 29 37 46 49
21 18 26 26 28 25 25 27 25 21 17 15 15 13 9 7 4 1 2 7 5 4 6 18 13 6 7 9 11 14 14 12 11 8 7 3 3 6 3 4 10 4 6 9 12 21 17 26 31 37 42 48 49 54
21 22 24 36 36 34 31 32 31 24 22 18 18 16 11 9 5 2 3 3 5 6 3 10 9 13 11 14 15 15 12 9 5 4 7 6 5 8 5 2 8 3 1 6 14 21 28 37 38 37 44 54 58 59
22 21 21 22 35 42 41 36 29 27 25 21 21 18 13 10 8 6 3 7 2 5 3 10 14 13 15 13 10 12 10 8 4 8 3 5 7 7 3 3 10 3 7 10 15 24 34 34 46 49 51 53 57 61
22 21 23 21 20 18 24 28 29 22 21 21 22 19 13 11 8 5 13 7 1 2 3 5 7 17 18 14 12 5 7 7 4 4 7 2 7 5 4 9 2 4 9 14 22 30 37 43 46 50 53 58 61 62
24 21 21 22 18 17 22 27 23 17 17 20 21 14 9 8 5 9 10 6 4 6 5 7 10 9 21 10 7 9 6 5 4 4 5 6 6 7 10 6 1 8 14 25 33 38 37 41 48 51 55 59 58 58
21 18 17 18 16 16 16 17 15 15 21 22 22 7 10 10 11 13 3 3 6 8 8 9 3 8 22 19 9 10 5 2 6 6 5 7 5 11 9 1 7 14 21 28 36 40 44 46 48 50 55 54 60 65
20 18 16 17 14 15 14 15 17 24 26 24 11 7 12 19 10 6 8 10 10 9 14 10 17 14 7 13 11 2 4 4 6 8 6 6 7 16 11 3 7 13 21 27 28 30 35 39 43 49 54 52 59 62
19 17 15 14 12 13 12 19 31 30 24 20 17 18 18 7 8 9 9 7 10 7 14 19 21 13 11 5 6 7 3 6 3 9 6 6 11 12 4 6 13 19 23 23 24 29 32 36 38 40 44 49 54 52
17 17 13 12 11 13 13 31 34 30 24 22 8 11 9 10 5 11 16 9 8 16 19 23 20 15 9 6 7 5 8 4 7 7 5 3 18 5 4 13 17 20 20 21 25 27 33 37 37 37 43 46 48 50
17 15 14 11 11 12 17 36 38 32 12 7 11 5 10 11 10 7 6 7 11 15 31 36 20 9 8 6 5 7 4 8 7 7 7 12 9 1 9 12 16 18 19 21 23 29 32 35 38 41 39 42 46 50
15 13 13 11 10 13 30 36 39 22 8 7 8 8 13 3 5 6 8 11 12 27 39 26 16 10 9 7 5 5 9 7 7 6 7 12 3 7 8 10 12 14 16 17 22 27 31 36 37 38 40 42 43 45
14 12 12 14 14 23 34 35 34 7 5 4 7 6 9 9 11 13 15 14 18 35 32 21 8 8 6 7 10 9 7 7 8 8 10 5 3 5 6 8 9 9 10 14 18 22 27 36 36 39 42 45 47 48
11 10 9 12 28 36 33 28 18 7 5 5 7 11 5 2 1 5 9 14 24 35 16 9 11 6 9 6 8 5 4 9 18 12 5 1 3 3 5 5 5 5 9 12 16 17 19 26 31 40 51 51 49 51
14 12 7 33 43 39 26 10 8 7 8 11 7 9 6 3 2 7 7 14 26 35 23 4 10 10 7 10 8 10 17 19 12 7 3 1 1 1 3 4 8 8 10 11 13 15 20 24 29 30 32 37 43 47
16 14 38 46 39 12 10 9 6 6 7 5 4 2 2 0 2 1 7 20 14 17 14 8 4 7 7 4 11 22 23 18 12 5 3 3 1 6 8 10 10 11 10 13 13 15 17 23 25 26 28 29 35 38
15 34 39 43 27 11 5 6 8 3 4 4 4 5 3 3 3 9 16 15 15 10 7 6 2 7 13 15 16 19 19 17 9 4 9 6 7 9 8 10 11 12 10 11 15 16 17 21 24 26 28 31 35 40
23 34 41 22 3 3 4 7 8 3 2 3 4 4 5 4 7 10 9 6 8 8 6 9 8 15 18 18 15 15 16 15 8 4 4 9 6 8 9 12 13 11 11 12 13 16 20 22 21 23 28 32 30 35
24 21 17 6 3 1 2 2 1 4 4 5 6 6 8 8 5 5 6 4 13 20 7 6 9 15 11 12 11 12 15 19 10 7 8 8 10 10 12 15 14 16 18 18 18 19 19 19 22 22 22 24 31 36
25 19 7 3 4 4 4 7 4 6 5 8 7 5 7 12 17 20 8 12 23 21 20 19 18 18 16 12 12 16 17 11 11 12 10 12 11 14 17 19 19 22 23 21 21 22 22 23 23 22 23 24 25 28
19 6 3 4 1 2 5 7 4 3 5 7 7 5 5 8 13 13 12 20 21 18 21 23 24 21 20 20 19 19 15 15 16 14 16 16 16 17 20 20 22 24 25 23 20 19 19 19 20 20 19 21 22 25
4 3 2 4 4 3 4 8 6 5 3 5 4 4 5 9 8 10 13 26 27 29 25 21 21 21 22 24 23 19 20 16 15 16 18 16 18 20 22 23 24 24 20 16 13 11 10 11 13 15 18 21 20 21
2 6 8 8 7 3 5 4 8 7 2 3 6 2 4 7 8 9 12 29 31 30 32 28 29 27 23 25 25 21 20 21 16 16 20 19 21 22 29 30 25 19 15 11 7 4 4 5 8 11 15 16 20 23
3 5 7 5 3 5 6 4 1 5 4 3 3 3 3 6 9 5 7 8 14 21 26 26 30 26 25 25 21 23 24 21 16 11 19 23 21 28 28 27 22 18 13 7 2 6 10 7 6 8 10 11 17 20
0 5 4 15 8 5 5 6 6 5 2 5 5 7 8 6 4 5 3 1 10 15 19 23 24 24 21 19 21 26 27 20 16 20 25 24 26 28 23 20 14 9 7 4 2 3 7 8 5 6 7 9 12 17
3 3 7 11 10 5 5 4 5 9 15 12 7 1 5 6 5 3 1 6 13 21 29 33 31 26 26 25 23 18 19 17 25 31 31 33 31 28 24 19 11 6 9 8 8 9 6 7 5 6 8 10 10 13
6 14 10 13 8 3 7 8 10 12 14 16 11 3 11 11 13 21 16 13 16 21 26 30 29 25 27 25 20 18 18 18 20 20 32 32 29 26 25 22 15 11 10 15 12 12 9 4 7 5 3 3 6 10
7 18 8 12 8 17 11 11 12 13 8 4 1 11 14 10 13 13 15 23 20 29 30 29 29 23 26 24 20 20 21 22 23 23 26 27 28 25 22 19 15 16 10 9 11 12 9 6 1 2 5 4 7 12
14 10 6 7 7 7 4 3 1 3 6 7 5 6 10 10 8 1 10 9 13 25 26 24 22 21 20 18 13 16 20 23 30 29 28 27 25 19 17 16 2 13 14 10 11 10 12 11 9 8 5 7 11 15
7 7 7 6 9 7 9 5 5 6 5 5 4 2 2 5 9 7 25 15 14 28 32 22 22 25 20 15 13 14 21 31 36 35 33 28 21 20 16 18 17 16 19 12 10 7 8 8 11 14 13 12 15 16
Wind_Direction_850mb
286 285 282 272 265 266 270 270 272 279 298 293 303 326 346 359 358 5 315 353 159 283 106 87 66 89 139 242 228 120 181 200 211 239 265 186 258 165 240 35 244 240 251 220 256 275 257 61 182 289 7 321 321 310
283 280 273 263 255 262 260 262 265 269 283 285 272 304 325 353 2 5 2 347 171 127 100 130 105 100 87 73 59 165 25 82 32 250 221 180 197 188 299 214 175 235 333 342 311 26 56 356 357 326 318 310 309 305
286 282 258 258 253 251 253 259 265 267 269 281 249 276 302 331 3 42 19 29 140 153 138 153 130 96 77 69 111 255 191 152 146 135 92 50 239 298 228 228 228 154 6 265 313 107 340 319 297 295 288 297 302 300
285 262 211 214 241 255 256 262 267 261 257 270 235 251 273 293 347 135 50 40 131 247 234 134 129 103 86 37 66 207 187 154 140 147 219 234 238 248 76 27 273 38 176 306 271 267 307 294 309 300 288 295 300 300
274 256 220 228 241 254 255 262 263 254 250 257 231 235 248 254 283 233 165 45 74 143 345 140 145 109 88 86 94 111 138 150 171 181 207 137 107 215 148 270 245 168 25 288 329 344 315 300 309 307 302 299 300 301
268 269 249 232 238 247 255 260 262 253 243 245 226 225 233 231 237 160 216 251 43 150 213 179 121 143 127 113 102 103 116 121 141 177 109 117 101 279 249 260 93 151 138 331 309 311 310 304 302 306 306 306 303 300
261 264 273 267 243 241 247 255 258 246 244 237 219 214 224 220 212 204 271 196 159 130 241 155 153 165 154 147 124 115 93 98 83 128 120 121 146 275 271 257 119 164 313 315 306 311 311 314 311 312 309 308 306 304
253 258 268 276 274 257 250 242 249 244 242 228 206 204 215 218 214 243 233 214 171 129 218 228 113 163 176 178 151 160 162 167 60 96 168 202 165 236 242 122 157 309 310 308 322 318 311 312 313 316 315 315 313 311
252 251 261 272 271 264 244 243 245 236 222 202 185 185 186 187 187 216 194 207 228 169 261 234 182 159 175 158 136 154 205 193 132 200 127 241 138 217 121 124 48 331 318 317 318 319 319 319 317 320 321 318 314 310
246 246 260 267 263 266 256 233 216 202 176 167 159 154 182 189 179 160 204 175 194 211 224 246 137 143 187 176 149 157 202 146 210 86 166 234 197 118 154 110 325 321 322 321 322 324 324 323 324 323 323 319 319 320
241 244 262 265 258 258 249 208 178 160 158 156 160 173 189 153 145 186 202 214 172 212 197 197 199 150 160 201 135 304 134 157 225 117 259 171 189 149 148 69 348 336 327 322 320 316 322 324 326 324 327 330 335 335
235 240 255 256 251 250 233 180 164 161 165 165 148 131 140 176 189 209 197 174 220 202 168 179 160 144 129 123 144 163 180 199 188 141 234 214 101 148 209 337 343 336 331 333 334 332 333 332 328 326 331 336 340 342
224 237 241 248 242 238 208 173 163 159 153 143 146 169 183 162 183 211 184 191 192 173 167 163 146 140 129 137 105 176 188 158 136 213 219 115 113 137 11 333 328 334 334 341 340 344 341 336 339 340 342 345 347 353
213 231 239 249 231 216 185 170 161 161 161 182 170 159 216 178 226 194 213 133 116 151 158 163 139 137 122 142 143 174 84 196 209 219 191 132 133 45 335 325 327 333 345 345 350 350 344 345 345 349 351 352 1 1
208 223 231 234 208 195 171 164 164 167 166 204 191 209 202 221 202 173 169 158 143 152 153 150 134 137 123 134 178 131 182 214 222 183 115 116 106 337 340 333 336 339 349 353 358 356 353 355 358 7 16 13 7 10
208 227 237 211 188 165 156 162 168 152 167 214 221 240 192 219 164 176 179 173 153 161 165 166 147 164 145 149 183 190 191 211 143 135 122 115 357 347 346 349 343 354 2 5 7 3 13 15 17 26 32 31 37 37
190 185 185 179 155 145 151 156 174 196 214 216 229 214 251 310 109 144 173 164 165 170 177 155 170 137 127 191 173 188 206 115 132 140 132 15 353 360 7 359 14 50 34 19 12 15 20 26 35 35 42 44 46 48
169 166 171 156 146 145 153 154 189 200 221 218 227 138 182 230 252 148 160 170 168 188 177 158 123 189 172 176 161 146 148 135 136 133 163 308 270 297 68 59 97 78 55 34 26 23 23 28 24 26 26 28 32 43
165 154 149 149 146 143 156 192 195 219 201 163 199 194 171 137 108 120 161 168 166 163 166 167 194 188 161 147 126 155 158 160 159 163 183 161 30 95 108 125 115 89 71 53 39 34 31 29 32 29 30 34 37 34
162 163 156 151 146 166 166 172 172 236 183 122 161 137 108 106 89 111 116 127 141 145 172 162 185 125 128 134 143 158 164 162 170 206 165 164 123 122 131 146 125 104 74 64 43 59 47 46 42 44 49 47 46 38
160 167 169 165 66 99 113 152 183 198 131 151 145 144 124 123 107 122 88 120 108 34 151 185 164 130 125 142 152 163 177 177 201 281 189 168 121 121 125 130 106 100 89 80 73 57 61 54 48 49 53 52 54 50
154 157 147 136 133 240 183 142 123 168 177 141 154 176 153 150 170 120 55 111 166 214 217 136 165 162 180 193 210 219 204 192 205 209 204 190 151 139 135 119 117 108 102 94 87 81 73 72 64 63 61 56 49 49
137 135 124 26 7 33 103 155 196 169 178 149 160 169 191 179 178 160 160 224 233 206 198 203 232 227 197 204 206 186 179 194 189 189 170 149 140 139 128 126 123 122 113 104 101 93 83 74 71 69 60 53 48 45
84 103 147 145 176 211 182 186 165 133 141 161 165 180 202 196 171 217 228 204 208 187 197 218 221 214 218 212 197 191 190 178 182 167 168 149 144 134 134 135 132 128 120 111 105 97 86 78 66 56 48 42 38 34
73 66 87 296 191 206 221 156 146 180 166 136 149 220 213 185 215 229 228 215 209 210 215 231 227 203 202 196 190 188 195 187 194 184 165 149 149 138 144 142 140 140 131 119 115 100 86 70 55 45 36 28 17 13
150 185 193 199 137 213 138 151 188 134 195 194 244 281 253 220 223 226 215 219 211 213 214 210 197 191 192 191 187 187 189 176 175 184 171 161 156 155 151 149 150 154 154 138 114 78 27 359 9 3 8 6 12 8
171 162 174 194 136 152 198 236 225 147 160 205 277 273 238 243 216 200 151 162 179 191 193 195 188 186 182 175 182 196 183 181 176 174 185 157 157 156 153 150 146 141 151 147 82 3 353 340 327 345 3 31 21 27
319 176 201 166 187 223 292 222 192 117 148 216 249 219 216 242 68 77 129 140 163 155 162 163 162 163 165 170 176 176 165 170 185 162 158 161 163 165 163 161 165 181 185 215 262 348 23 30 52 61 51 42 57 43
187 203 186 174 178 230 256 286 73 177 209 211 252 120 56 58 4 49 297 177 171 168 163 160 159 163 173 171 161 161 170 169 172 168 164 163 164 173 176 176 178 168 156 126 145 137 110 59 86 91 82 85 62 35
223 192 204 178 189 206 256 190 199 265 277 263 287 209 97 79 82 76 71 114 149 152 162 172 175 175 168 166 169 171 173 177 174 173 172 173 174 169 171 174 180 177 188 192 173 164 168 116 93 130 109 49 14 6
209 186 201 186 165 208 194 202 248 263 258 222 49 54 112 113 74 67 86 74 139 146 148 153 148 154 154 155 165 182 191 194 186 174 170 166 166 168 174 179 188 202 199 199 201 199 201 192 234 322 237 293 335 351
183 198 188 171 198 180 222 230 181 177 133 160 119 112 140 144 101 257 190 148 134 139 171 151 146 147 152 159 165 186 182 183 174 170 168 168 175 175 180 177 222 247 240 227 207 210 215 230 238 265 301 270 314 323
179 208 228 215 188 198 189 212 197 168 165 121 128 103 30 68 114 180 176 179 130 158 174 197 183 160 152 141 138 139 148 160 166 166 167 169 188 220 247 279 291 262 219 206 203 219 235 253 272 264 268 294 301 317